www.pogodaiklimat.ru

Погода и климат >> Архив погоды >> Россия >> Камчатский край >> Долиновка


ПОГОДА в Долиновке

  • Прогноз погоды в Долиновке
  • Монитор погоды в Долиновке

АРХИВ ПОГОДЫ в Долиновке

Время (UTC), дата Ветер
(напр.,м/с)
 
Видим.   Явления Облачность Т
(С)
Тd
(С)
f
(%)
Тe
(С)
Тes
(С)
Комфортность P
(гПа)
Po
(гПа)
Тmin
(С)
Tmax
(С)
R
(мм)
R24
(мм)
S
(см)
00 15.07 ЮЗ 2 50 км ясно +22.7 +12.6 53 +25 +40 комфорт 1011.8 1000.0
03 15.07 ЮВ 1 50 км 9/0
[Ci fib]
+26.0 +9.3 35 +26 +28 жарко 1010.3 998.7
06 15.07 ЮЗ 2 50 км 4/0
[Ac trans]
+27.9 +13.0 40 +30 +33 жарко 1008.8 997.3
09 15.07 штиль 0 50 км 8/0
[Ac trans]
+23.4 +17.1 68 +29 +29 душно 1010.4 998.7 +28.3
12 15.07 штиль 0 20 км 5/0
[Ac trans]
+13.5 +11.6 88 +13 +13 1012.2 1000.0
15 15.07 штиль 0 20 км 5/0
[Ac trans]
+8.7 +8.3 97 +8 +8 1013.7 1001.3
18 15.07 штиль 0 50 км 9/0
[Ac trans Ci sp]
+7.3 +7.0 98 +6 +6 1013.8 1001.3
21 15.07 ЮЗ 1 50 км 9/0
[Ci sp]
+16.2 +13.1 82 +17 +23 1012.7 1000.7 +6.4
00 16.07 ЮЗ 2 50 км 9/0
[Ci sp]
+23.8 +12.8 50 +26 +37 жарко 1011.7 1000.0
03 16.07 Ю 1 50 км 9/0
[Ci fib]
+27.0 +10.6 36 +28 +29 жарко 1011.6 1000.0
06 16.07 В 1 50 км 8/3 1000 м
[Sc Ci fib]
+27.1 +9.4 33 +27 +29 жарко 1010.3 998.7
09 16.07 СВ 1 50 км 9/8 1000 м
[Sc Ci fib]
+21.5 +16.4 73 +25 +25 комфорт 1010.5 998.7 +28.4
12 16.07 штиль 0 20 км 4 балла +14.4 +13.8 96 +14 +14 1013.4 1001.3
15 16.07 штиль 0 20 км 4/4 1000 м
[Sc]
+11.5 +11.2 98 +11 +11 1013.6 1001.3
18 16.07 штиль 0 50 км 4/3 1000 м
[Sc Ci sp]
+8.0 +7.7 98 +7 +7 1015.2 1002.7
21 16.07 ЮЗ 1 50 км 9/0
[Ci sp]
+16.9 +12.1 73 +18 +23 1013.5 1001.5 +8.0
00 17.07 Ю 1 50 км 9/0
[Ci sp]
+24.0 +12.7 49 +26 +39 жарко 1012.2 1000.5
03 17.07 Ю 1 50 км 9/0
[Ci sp]
+27.3 +9.1 32 +27 +29 жарко 1011.6 1000.0
06 17.07 ЮЗ 1 50 км 8/0
[Ci sp]
+28.5 +11.1 34 +29 +31 жарко 1010.2 998.7
09 17.07 штиль 0 50 км 9/3 1000 м
[Sc Ci sp]
+21.7 +12.5 56 +24 +24 комфорт 1010.3 998.6 +28.6
12 17.07 штиль 0 20 км 5/3 1000 м
[Sc Ci fib]
+13.7 +11.6 87 +13 +13 1013.5 1001.3
15 17.07 штиль 0 20 км 3/3 1000 м
[Sc]
+9.9 +9.6 98 +9 +9 1013.6 1001.3
18 17.07 штиль 0 50 км 9/3 1000 м
[Sc Ci fib]
+8.1 +7.8 98 +7 +7 1013.7 1001.3
21 17.07 Ю 1 50 км 9/0
[Ci fib]
+17.3 +12.0 71 +18 +24 1012.8 1000.9 +7.7
00 18.07 ЮЗ 1 50 км 9/3 1000 м
[Sc Ci sp]
+22.7 +11.9 50 +25 +35 комфорт 1011.7 1000.0
03 18.07 штиль 0 50 км 9 баллов +25.4 +10.8 40 +26 +28 жарко 1011.7 1000.0
06 18.07 штиль 0 50 км 9/3 1000 м
[Sc Ci sp]
+26.1 +14.2 48 +28 +29 жарко 1011.6 1000.0
09 18.07 штиль 0 50 км 9/4 1000 м
[Sc Ci sp]
+20.9 +15.9 73 +24 +24 комфорт 1011.8 1000.0 +27.6
12 18.07 ЮЗ 3 20 км 9/3 1000 м
[Sc Ci fib]
+17.1 +10.0 63 +17 +17 1014.8 1002.7
15 18.07 З 2 20 км 3/0
[Ci sp]
+11.7 +10.8 94 +10 +10 1016.3 1004.0
18 18.07 штиль 0 50 км 6/6 1000 м
[Sc]
+9.9 +9.6 98 +9 +9 1017.7 1005.3
21 18.07 ЮЗ 3 50 км 9/5 1000 м
[Sc Ci fib]
+19.1 +13.3 69 +20 +22 1016.7 1004.8 +9.6
00 19.07 ЮЗ 2 50 км 9/8 1000 м
[Sc Ci fib]
+24.6 +14.9 55 +27 +30 жарко 1016.4 1004.7
03 19.07 Ю 2 50 км 9/8 600 м
[Cu med, cong Ci fib]
+27.5 +13.1 41 +29 +30 жарко 1017.0 1005.3
06 19.07 ЮЗ 2 50 км 9/5 600 м
[Cu Sc Ci fib]
+27.6 +14.6 45 +30 +31 жарко 1015.6 1004.0
09 19.07 З 1 50 км 4/4 1000 м
[Sc]
+21.4 +15.0 67 +25 +25 комфорт 1017.2 1005.3 +28.9
12 19.07 З 1 20 км 3/3 1000 м
[Sc]
+15.9 +14.4 91 +17 +17 1018.8 1006.7
15 19.07 З 1 20 км 5/3 1000 м
[Sc Ci fib]
+14.6 +13.8 95 +15 +15 1020.2 1008.0
18 19.07 З 1 50 км 3/3 1000 м
[Sc]
+13.1 +12.6 97 +13 +13 1020.3 1008.0
21 19.07 ЮЗ 2 50 км 3/0
[Ci sp]
+19.7 +14.0 70 +22 +27 комфорт 1018.2 1006.3 +13.1
00 20.07 ЮЗ 2 50 км 9/6 1000 м
[Sc Ac As Ci fib]
+24.2 +14.7 55 +27 +30 жарко 1016.6 1004.9
03 20.07 ЮЗ 3 50 км 9/8 1000 м
[Sc Ac As]
+24.6 +14.1 52 +27 +28 жарко 1017.1 1005.3
06 20.07 ЮЗ 4
{12}
50 км {ливн. осадки} 10/8 600 м
[Cb cap Ac As]
+19.8 +15.8 78 +22 +22 комфорт 1015.9 1004.0
09 20.07 ЮЗ 3 50 км в посл. час ливневой дождь 9/8 600 м
[Cb cap Ac As]
+17.8 +14.7 82 +18 +18 1016.0 1004.0 +26.2 0.6
12 20.07 ЮЗ 1 20 км {ливн. осадки} 9/9 600 м
[Cb cap]
+16.5 +13.4 82 +17 +17 1015.4 1003.3
15 20.07 ЮЗ 2 н/о н/о +16.7 +12.8 78 +17 +17 1016.1 1004.0
18 20.07 ЮЗ 3 50 км 10/10 1000 м
[Sc]
+16.0 +12.7 81 +16 +16 1016.1 1004.0
21 20.07 ЮЗ 3 50 км 10/6 600 м
[Cb cap Ac As]
+18.7 +14.0 74 +20 +20 1013.8 1001.9 +16.0
00 21.07 ЮЗ 4 50 км {ливн. осадки} 9/8 600 м
[Cb cap Ci fib]
+21.6 +15.1 67 +25 +27 комфорт 1011.3 999.6
03 21.07 ЮЗ 3 50 км 10 баллов +23.1 +15.7 63 +27 +27 душно 1009.0 997.3
06 21.07 З 2 50 км 10 баллов +20.4 +14.3 68 +24 +24 комфорт 1009.1 997.3
09 21.07 З 3 50 км 10/10 600 м
[Cb cap]
+15.5 +8.5 63 +15 +15 1010.8 998.7 +24.6 0.3
12 21.07 штиль 0 20 км {ливн. осадки} 10/10 600 м
[Cb cap]
+11.9 +11.3 96 +11 +11 1010.7 998.5
15 21.07 ЮЗ 1 20 км 10 баллов +11.8 +9.4 85 +12 +12 1012.2 1000.0
18 21.07 штиль 0 50 км 7 баллов +8.0 +7.6 97 +7 +7 1012.4 1000.0

 

Местоположение метеостанции Долиновка (Камчатский край, Россия): широта 55.12 долгота 159.00 высота над уровнем моря 102 м.

В архиве по умолчанию представлена погода в Долиновке за последнюю неделю. Архивные данные за месяц целиком и за предыдущие месяцы, начиная с января 2011 года, Вы можете получить, выбрав интересующий диапазон дат из раскрывающегося списка и нажав кнопку "Ввод!".


*Определитесь, кто Вы:
робот инопланетянин человек

Внимание! Время в таблицах - всемирное. Для получения местного времени необходимо прибавить поправку, которая равна 12 ч.

Смотрите также архив погоды в соседних городах и на ближайших метеорологических станциях:

Погода в Мильково (Камчатский край, Россия) (58 км)
Погода в Эссо (Камчатский край, Россия) (92 км)
Погода в Козыревске (Камчатский край, Россия) (115 км)
Погода в Пущино (Камчатский край, Россия) (123 км)
Погода в Семячике (Камчатский край, Россия) (125 км)
Погода в Ключах (Камчатский край, Россия) (175 км)
Погода в Соболево (Камчатский край, Россия) (219 км)
Погода в Иче (Камчатский край, Россия) (227 км)
Погода в Петропавловск-Камч. 2 (Камчатский край, Россия) (229 км)
Погода в Сосновке (Камчатский край, Россия) (231 км)

Пояснения к столбцам:

Ветер - указаны скорость ветра в м/с - средняя за 10 мин, порывы в срок и между сроками (в фигурных скобках) и направление, откуда дует ветер: С - северный, СВ - северо-восточный, В - восточный, ЮВ - юго-восточный, Ю - южный, ЮЗ - юго-западный, З - западный, СЗ - северо-западный.
Видимость - горизонтальная дальность видимости в метрах или километрах. При видимости от 1 до 10 км при отсутствии осадков обычно наблюдается дымка, при ухудшении видимости до 1 км и менее - туман. В сухую погоду видимость может ухудшаться дымом, пылью или мглою.
Явления - указаны атмосферные явления, наблюдавшиеся в срок или в последний час перед сроком; фигурными скобками обозначены явления, наблюдавшиеся между сроками (за 1-3 часа до срока); квадратными скобками обозначены град или гололедные отложения с указанием их диаметра в мм.
Облачность - указаны через наклонную черту общая и нижняя облачность в баллах и высота нижней границы облаков в метрах; квадратными скобками обозначены формы облаков: Ci - перистые, Cs - перисто-слоистые, Cc - перисто-кучевые, Ac - высококучевые, As - высокослоистые, Sc - слоисто-кучевые, Ns - слоисто-дождевые, Cu - кучевые, Cb - кучево-дождевые. Подробнее классификацию облаков см. в Атласе облаков (PDF).
T - Температура воздуха - температура, измеренная на высоте 2 м над землей.
Td - Температура точки росы - температура, при понижении до которой содержащийся в воздухе водяной пар достигнет насыщения.
f - Относительная влажность воздуха - влажноcть воздуха, измеренная на высоте 2 м над землей.
Te - Эффективная температура - температура, которую ощущает одетый по сезону человек в тени. Характеристика душности погоды. При расчете учитывается влияние влажности воздуха и скорости ветра на теплоощущения человека.
Tes - Эффективная температура на солнце - температура, которую ощущает человек, с поправкой на солнечный нагрев. Характеристика знойности погоды. Зависит от высоты солнца над горизонтом, облачности и скорости ветра. Ночью, в пасмурную погоду, а также при ветре 12 м/с и более поправка равна нулю.
P - Атмосферное давление - приведенное к уровню моря атмосферное давление.
Po - Атмосферное давление - измеренное на уровне метеостанции атмосферное давление.
Tmin - Минимальная температура - минимум температуры воздуха на высоте 2 м над землей.
Tmax - Максимальная температура - максимум температуры воздуха на высоте 2 м над землей.
R - Количество осадков - Количество выпавших осадков за период времени, мм. При наведении курсора мыши на число - период времени, за который выпало указанное количество осадков.
R24 - Количество осадков - Количество выпавших осадков за 24 часа, мм.
S - Снежный покров - Высота снежного покрова, см. При наведении курсора мыши на число - состояние снежного покрова и степень покрытия местности в баллах.